Weather History for Williston, ND

Change the Weather History Date:

Thursday, February 7, 2013

  Actual Average Record
Temperature  
Mean Temperature 24 °F 14 °F  
Max Temperature 28 °F 25 °F 58 °F (1991)
Min Temperature 20 °F 4 °F -40 °F (1895)
Degree Days  
Heating Degree Days 41 51  
Month to date heating degree days 301 360  
Since 1 July heating degree days 5675 5781  
Cooling Degree Days 0 0  
Month to date cooling degree days 0 0  
Year to date cooling degree days 0 0  
Moisture  
Dew Point 22 °F    
Average Humidity 96    
Maximum Humidity 100    
Minimum Humidity 92    
Precipitation  
Precipitation T in 0.02 in 0.30 in (1952)
Month to date precipitation 0.05 0.09  
Year to date precipitation 0.48 0.68  
Snow  
Snow T in 0.20 in 3.00 in (1952)
Month to date snowfall 0.5 1.3  
Snow Depth 3.00 in    
Sea Level Pressure  
Sea Level Pressure 30.12 in    
Wind  
Wind Speed 5 mph (ESE)    
Max Wind Speed 13 mph    
Max Gust Speed 14 mph    
Visibility 4 miles    
Events Fog , Snow    
T = Trace of Precipitation, MM = Missing Value Source: NWS Daily Summary

Daily Weather History Graph

Daily Weather History Graph

Search for Another Location

Airport:

Trip Planner

Search our weather history database for the weather conditions in past years. The results will help you decide how hot, cold, wet, or windy it might be!

Date:

Astronomy

Feb. 07, 2013 Rise Set
Actual Time 8:13 AM CST 6:04 PM CST
Civil Twilight 7:40 AM CST 6:37 PM CST
Nautical Twilight 7:04 AM CST 7:14 PM CST
Astronomical Twilight 6:27 AM CST 7:50 PM CST
Moon 6:02 AM CST (2/7) 3:25 PM CST (2/7)
Length of Visible Light 10h 56m
Length of Day
9h 50m
Waning Crescent, 9% of the Moon is Illuminated
Feb 7
Waning Crescent
Feb 10
New
Feb 17
First Quarter
Feb 25
Full
Mar 4
Last Quarter

Hourly Weather History & Observations

Time (CST) Temp. Windchill Dew Point Humidity Pressure Visibility Wind Dir Wind Speed Gust Speed Precip Events Conditions
12:52 AM 21.0 °F 12.4 °F 21.0 °F 100% 30.11 in 6.0 mi ESE 6.9 mph - N/A   Overcast
1:52 AM 23.0 °F 17.0 °F 21.9 °F 96% 30.12 in 6.0 mi ESE 4.6 mph - N/A   Overcast
2:52 AM 21.9 °F 12.5 °F 21.0 °F 96% 30.12 in 7.0 mi ESE 8.1 mph - N/A   Overcast
3:52 AM 21.9 °F 13.4 °F 21.0 °F 96% 30.12 in 6.0 mi ESE 6.9 mph - N/A   Overcast
4:52 AM 21.9 °F 15.7 °F 21.9 °F 100% 30.13 in 5.0 mi ESE 4.6 mph - N/A   Overcast
5:52 AM 21.0 °F 12.4 °F 21.0 °F 100% 30.14 in 5.0 mi ESE 6.9 mph - N/A   Overcast
6:52 AM 21.0 °F 11.4 °F 21.0 °F 100% 30.14 in 5.0 mi ESE 8.1 mph - N/A   Overcast
7:52 AM 21.0 °F 11.4 °F 21.0 °F 100% 30.14 in 3.0 mi East 8.1 mph - N/A   Overcast
7:58 AM 21.2 °F 10.9 °F 21.2 °F 100% 30.05 in 2.5 mi ESE 9.2 mph - N/A   Overcast
8:33 AM 21.2 °F 13.6 °F 21.2 °F 100% 30.06 in 1.5 mi ESE 5.8 mph - N/A   Overcast
8:52 AM 21.0 °F 11.4 °F 21.0 °F 100% 30.17 in 1.8 mi ESE 8.1 mph - N/A   Overcast
9:24 AM 21.2 °F 14.9 °F 21.2 °F 100% 30.08 in 0.5 mi East 4.6 mph - 0.00 in Fog , Snow Light Snow
9:30 AM 21.2 °F 13.6 °F 21.2 °F 100% 30.08 in 0.2 mi SE 5.8 mph - 0.00 in Fog , Snow Light Snow
9:38 AM 21.2 °F 12.6 °F 19.4 °F 93% 30.08 in 0.5 mi SE 6.9 mph - 0.00 in Fog Light Freezing Fog
9:52 AM 21.0 °F 16.2 °F 21.0 °F 100% 30.18 in 0.8 mi East 3.5 mph - 0.00 in   Overcast
10:17 AM 21.2 °F 14.9 °F 21.2 °F 100% 30.09 in 1.0 mi East 4.6 mph - 0.00 in   Overcast
10:26 AM 21.2 °F 13.6 °F 21.2 °F 100% 30.09 in 0.5 mi East 5.8 mph - 0.00 in Fog Light Freezing Fog
10:49 AM 21.2 °F 13.6 °F 21.2 °F 100% 30.08 in 1.0 mi ESE 5.8 mph - 0.00 in   Overcast
10:52 AM 21.0 °F 13.4 °F 21.0 °F 100% 30.19 in 0.8 mi ESE 5.8 mph - 0.00 in   Overcast
11:07 AM 21.2 °F 13.6 °F 21.2 °F 100% 30.09 in 2.0 mi SE 5.8 mph - N/A   Overcast
11:25 AM 21.2 °F 14.9 °F 21.2 °F 100% 30.09 in 3.0 mi SE 4.6 mph - N/A   Overcast
11:52 AM 23.0 °F 14.7 °F 23.0 °F 100% 30.19 in 3.0 mi ESE 6.9 mph - N/A   Overcast
11:59 AM 23.0 °F 14.7 °F 23.0 °F 100% 30.09 in 2.5 mi ESE 6.9 mph - N/A   Overcast
12:05 PM 23.0 °F 15.8 °F 23.0 °F 100% 30.09 in 3.0 mi ESE 5.8 mph - N/A   Overcast
12:52 PM 25.0 °F 17.1 °F 24.1 °F 96% 30.18 in 4.0 mi SE 6.9 mph - N/A   Overcast
1:52 PM 26.1 °F 19.4 °F 25.0 °F 96% 30.16 in 4.0 mi SSE 5.8 mph - N/A   Overcast
2:52 PM 26.1 °F 18.4 °F 25.0 °F 96% 30.15 in 4.0 mi SSE 6.9 mph - N/A   Overcast
3:44 PM 26.6 °F 18.2 °F 26.6 °F 100% 30.04 in 6.0 mi South 8.1 mph - N/A   Overcast
3:52 PM 27.0 °F 18.7 °F 26.1 °F 96% 30.14 in 6.0 mi SSE 8.1 mph - N/A   Overcast
4:52 PM 27.0 °F 20.5 °F 25.0 °F 92% 30.13 in 10.0 mi South 5.8 mph - N/A   Scattered Clouds
5:52 PM 27.0 °F 23.0 °F 25.0 °F 92% 30.12 in 10.0 mi SE 3.5 mph - N/A   Clear
6:52 PM 23.0 °F 18.4 °F 21.9 °F 96% 30.14 in 7.0 mi NNE 3.5 mph - N/A   Clear
7:52 PM 21.9 °F - 21.9 °F 100% 30.13 in 6.0 mi Calm Calm - N/A   Partly Cloudy
8:52 PM 24.1 °F - 23.0 °F 96% 30.12 in 7.0 mi Calm Calm - N/A   Scattered Clouds
9:52 PM 26.1 °F 20.5 °F 25.0 °F 96% 30.11 in 9.0 mi SE 4.6 mph - N/A   Overcast
10:52 PM 23.0 °F - 23.0 °F 100% 30.10 in 7.0 mi Calm Calm - N/A   Clear
11:52 PM 21.0 °F - 21.0 °F 100% 30.09 in 8.0 mi Calm Calm - N/A   Mostly Cloudy